Imrali, Turkey

5:47 AM +03 on September 20, 2017 (GMT +0300)
Imrali

Weather History for 17060 - February, 2013

Change the Weather History Date:

Wednesday, February 20, 2013

  Actual Average Record
Temperature  
Mean Temperature 42 °F -  
Max Temperature 45 °F 50 °F - ()
Min Temperature 39 °F 38 °F - ()
Degree Days  
Heating Degree Days 23    
Moisture  
Dew Point 35 °F    
Average Humidity 76    
Maximum Humidity 93    
Minimum Humidity 61    
Precipitation  
Precipitation 0.00 in - - ()
Sea Level Pressure  
Sea Level Pressure 29.99 in    
Wind  
Wind Speed 9 mph ()    
Max Wind Speed 20 mph    
Max Gust Speed -    
Visibility 6.1 miles    
Events Rain    
T = Trace of Precipitation, MM = Missing Value Source: Averaged Metar Reports

Daily Weather History Graph

Daily Weather History Graph

Search for Another Location

Airport or City:

Trip Planner

Search our weather history database for the weather conditions in past years. The results will help you decide how hot, cold, wet, or windy it might be!

Date:

Astronomy

Feb. 20, 2013 Rise Set
Actual Time 6:52 AM EET 5:45 PM EET
Civil Twilight 6:24 AM EET 6:13 PM EET
Nautical Twilight 5:52 AM EET 6:45 PM EET
Astronomical Twilight 5:20 AM EET 7:16 PM EET
Moon 12:48 PM EET 2:58 AM EET
Length of Visible Light 11h 48m
Length of Day
10h 52m
Waxing Gibbous, 73% of the Moon is Illuminated
Feb 20
Waxing Gibbous
Feb 25
Full
Mar 4
Last Quarter
Mar 11
New
Mar 19
First Quarter

Hourly Weather History & Observations

Time (EET) Temp. Windchill Dew Point Humidity Pressure Visibility Wind Dir Wind Speed Gust Speed Precip Events Conditions
12:20 AM 41.0 °F 35.2 °F 35.6 °F 81% 29.80 in 4.3 mi ENE 9.2 mph - N/A Rain Light Rain Showers
12:50 AM 41.0 °F 35.8 °F 35.6 °F 81% 29.80 in 6.2 mi NE 8.1 mph - N/A   Mostly Cloudy
1:20 AM 41.0 °F 35.8 °F 35.6 °F 81% 29.80 in 6.2 mi NE 8.1 mph - N/A   Scattered Clouds
2:20 AM 41.0 °F 36.4 °F 35.6 °F 81% 29.80 in 6.2 mi NE 6.9 mph - N/A   Mostly Cloudy
2:50 AM 41.0 °F 35.2 °F 35.6 °F 81% 29.80 in 6.2 mi North 9.2 mph - N/A   Mostly Cloudy
3:20 AM 41.0 °F 34.7 °F 37.4 °F 87% 29.80 in 6.2 mi North 10.4 mph - N/A   Mostly Cloudy
3:50 AM 41.0 °F 34.7 °F 39.2 °F 93% 29.80 in 6.2 mi North 10.4 mph - N/A   Mostly Cloudy
4:20 AM 41.0 °F 34.3 °F 39.2 °F 93% 29.83 in 6.2 mi NNW 11.5 mph - N/A   Mostly Cloudy
4:50 AM 41.0 °F 33.5 °F 39.2 °F 93% 29.83 in 6.2 mi North 13.8 mph - N/A   Mostly Cloudy
5:20 AM 41.0 °F 33.1 °F 39.2 °F 93% 29.86 in 5.0 mi North 15.0 mph - N/A Rain Light Rain Showers
5:50 AM 41.0 °F 32.8 °F 37.4 °F 87% 29.86 in 6.2 mi North 16.1 mph - N/A   Mostly Cloudy
6:20 AM 41.0 °F 33.1 °F 37.4 °F 87% 29.86 in 6.2 mi North 15.0 mph - N/A   Mostly Cloudy
6:50 AM 41.0 °F 33.1 °F 37.4 °F 87% 29.89 in 6.2 mi North 15.0 mph - N/A   Mostly Cloudy
7:20 AM 41.0 °F 32.5 °F 37.4 °F 87% 29.89 in 6.2 mi North 17.3 mph - N/A   Scattered Clouds
7:50 AM 39.2 °F 29.8 °F 35.6 °F 87% 29.92 in 6.2 mi North 18.4 mph - N/A   Mostly Cloudy
8:00 AM 40 °F - 36 °F 79% 29.93 in 6 mi North 18.4 mph - -   Partly Cloudy
8:20 AM 41.0 °F 32.8 °F 35.6 °F 81% 29.95 in 6.2 mi NNW 16.1 mph - N/A   Mostly Cloudy
8:50 AM 41.0 °F 32.2 °F 35.6 °F 81% 29.95 in 6.2 mi NNW 18.4 mph - N/A   Mostly Cloudy
9:20 AM 41.0 °F 31.9 °F 35.6 °F 81% 29.95 in 6.2 mi NNW 19.6 mph - N/A   Mostly Cloudy
9:50 AM 41.0 °F 32.2 °F 35.6 °F 81% 29.98 in 6.2 mi NNW 18.4 mph - N/A   Mostly Cloudy
10:20 AM 41.0 °F 32.2 °F 35.6 °F 81% 29.98 in 6.2 mi NNW 18.4 mph - N/A   Mostly Cloudy
10:50 AM 42.8 °F 35.4 °F 35.6 °F 76% 30.01 in 6.2 mi NNW 15.0 mph - N/A   Mostly Cloudy
11:20 AM 42.8 °F 35.8 °F 33.8 °F 70% 30.01 in 6.2 mi NNW 13.8 mph - N/A   Mostly Cloudy
11:50 AM 42.8 °F 35.4 °F 33.8 °F 70% 30.01 in 6.2 mi NNW 15.0 mph - N/A   Mostly Cloudy
12:20 PM 44.6 °F 38.8 °F 33.8 °F 66% 30.04 in 6.2 mi NNW 11.5 mph - N/A   Mostly Cloudy
12:50 PM 44.6 °F 38.8 °F 33.8 °F 66% 30.04 in 6.2 mi NNW 11.5 mph - N/A   Mostly Cloudy
1:20 PM 44.6 °F 40.7 °F 33.8 °F 66% 30.04 in 6.2 mi North 6.9 mph - N/A   Mostly Cloudy
1:50 PM 44.6 °F 40.2 °F 33.8 °F 66% 30.04 in 6.2 mi NW 8.1 mph - N/A   Mostly Cloudy
2:20 PM 44.6 °F 40.7 °F 33.8 °F 66% 30.04 in 6.2 mi NNW 6.9 mph - N/A   Mostly Cloudy
2:50 PM 46.4 °F 43.5 °F 33.8 °F 62% 30.06 in 6.2 mi NNW 5.8 mph - N/A   Mostly Cloudy
3:20 PM 44.6 °F 42.2 °F 33.8 °F 66% 30.06 in 6.2 mi NNW 4.6 mph - N/A   Mostly Cloudy
3:50 PM 46.4 °F 42.9 °F 33.8 °F 62% 30.06 in 6.2 mi NNW 6.9 mph - N/A   Mostly Cloudy
4:20 PM 44.6 °F 42.2 °F 32.0 °F 61% 30.06 in 6.2 mi NNW 4.6 mph - N/A   Mostly Cloudy
4:50 PM 44.6 °F - 32.0 °F 61% 30.06 in 6.2 mi Variable 2.3 mph - N/A   Mostly Cloudy
5:20 PM 44.6 °F 41.4 °F 33.8 °F 66% 30.06 in 6.2 mi West 5.8 mph - N/A   Scattered Clouds
5:50 PM 44.6 °F 41.4 °F 33.8 °F 66% 30.09 in 6.2 mi WSW 5.8 mph - N/A   Scattered Clouds
6:20 PM 42.8 °F 40.1 °F 33.8 °F 70% 30.09 in 6.2 mi SW 4.6 mph - N/A   Scattered Clouds
6:50 PM 42.8 °F 39.3 °F 33.8 °F 70% 30.12 in 6.2 mi SW 5.8 mph - N/A   Scattered Clouds
7:20 PM 42.8 °F 40.1 °F 33.8 °F 70% 30.12 in 6.2 mi SW 4.6 mph - N/A   Scattered Clouds
7:50 PM 42.8 °F 41.1 °F 33.8 °F 70% 30.12 in 6.2 mi SW 3.5 mph - N/A   Scattered Clouds
8:00 PM 43 °F - 34 °F 61% 30.15 in 6 mi SW 3.5 mph - -   Partly Cloudy
8:20 PM 42.8 °F - 33.8 °F 70% 30.12 in 6.2 mi Variable 2.3 mph - N/A   Scattered Clouds
8:50 PM 42.8 °F - 33.8 °F 70% 30.12 in 6.2 mi Variable 2.3 mph - N/A   Scattered Clouds
9:20 PM 42.8 °F 41.1 °F 33.8 °F 70% 30.12 in 6.2 mi South 3.5 mph - N/A   Scattered Clouds
9:50 PM 41.0 °F - 33.8 °F 76% 30.12 in 6.2 mi Calm Calm - N/A   Partly Cloudy
10:20 PM 39.2 °F - 32.0 °F 75% 30.12 in 6.2 mi Calm Calm - N/A   Partly Cloudy
10:50 PM 41.0 °F - 33.8 °F 76% 30.12 in 6.2 mi Variable 1.2 mph - N/A   Partly Cloudy
11:20 PM 42.8 °F - 35.6 °F 76% 30.12 in 6.2 mi Variable 2.3 mph - N/A   Partly Cloudy
11:50 PM 42.8 °F 41.1 °F 35.6 °F 76% 30.12 in 6.2 mi ENE 3.5 mph - N/A   Partly Cloudy